Flag for Australia Weather past 2 weeks in Traralgon, Victoria, Australia

Now
70 °F

Mild.


Feels Like: 77 °F
Forecast: 45 / 76 °F
Wind: 12 mph from Northwest

Location: Latrobe Valley Airport

Current Time: Mar 29, 2015 at 2:29:14 PM

Latest Report: Mar 29, 2015 at 1:00 PM


Visibility: N/A

Pressure: 30.17 "Hg

Humidity: 53%

Dew point: 52 °F

Location of TraralgonLocation

Historic Weather in Traralgon — Graph

°F

Traralgon temperature yesterday

Maximum temperature yesterday: 62 °F (at 4:00 PM)
Minimum temperature yesterday: 51 °F (at 4:00 AM)
Average temperature yesterday: 56 °F

Past Weeks' High & Low Weather Summary

 TemperatureHumidityPressure
High91 °F (Mar 19, 4:00 PM)100% (Mar 15, 12:00 AM)30.36 "Hg (Mar 15, 12:00 AM)
Low38 °F (Mar 21, 6:00 AM)25% (Mar 14, 6:00 PM)29.57 "Hg (Mar 18, 6:00 AM)
Average60 °F77%29.98 "Hg
* Reported Mar 14 1:00 PM — Mar 29 1:00 PM, Traralgon, Weather by CustomWeather, © 2015

Note: Actual official high and low records may vary slightly from our data, if they occured in-between our weather recording intervals... More about our weather records

Advertising

Traralgon weather history for previous 24 hours

 ConditionsComfort  
Time TempWeatherWind HumidityBarometerVisibility
1:00 PM
Sun, Mar 29
70 °FMild.12 mph53%30.17 "HgN/A
12:00 PM68 °FMild.9 mph60%30.19 "HgN/A
10:00 AM52 °FCool.1 mph100%30.22 "HgN/A
9:00 AM48 °FLow clouds.6 mph100%30.22 "Hg0 mi
7:00 AM47 °FCool.6 mph100%30.18 "HgN/A
6:00 AM48 °FLow clouds.3 mph100%30.16 "Hg0 mi
4:00 AM47 °FCool.3 mph100%30.15 "HgN/A
3:00 AM47 °FLow clouds.No wind100%30.16 "Hg0 mi
1:00 AM46 °FCool.No wind100%30.19 "HgN/A
12:00 AM48 °FCool.No wind100%30.19 "HgN/A
10:00 PM
Sat, Mar 28
52 °FCool.No wind99%30.20 "HgN/A
9:00 PM55 °FPassing clouds.5 mph95%30.20 "HgN/A
7:00 PM60 °FCool.7 mph77%30.19 "HgN/A
6:00 PM62 °FOvercast.10 mph68%30.19 "HgN/A
4:00 PM62 °FMild.10 mph69%30.20 "HgN/A
3:00 PM62 °FOvercast.12 mph68%30.21 "HgN/A
Weather by CustomWeather, © 2015

See weather overviewHow to use our weather pages